Вернуться в каталог

STARLINK-38049

АктивенСвязьSSO
NORAD 69751·PAYLOAD·🇺🇸 United States

Запущен Jul 2, 2026 с Vandenberg Space Force Base

Loading…

Ближайшие Пролёты (ближайшие 24 часа)

TLE

СвежийSource: CelesTrak SupGP

Эпоха: Sep 15, 2026, 02:48 UTC

1 69751C 26150N   26258.11715278 -.00032731  00000+0 -10160-2 0  2582
2 69751  97.2849  97.1024 0001879  91.9098 127.3567 15.33456024    18

Отслеживайте STARLINK-38049 в реальном времени с AllMySat

Download on the App Store